Weather History for Bremerton, WA

Change the Weather History Date:

Thursday, December 29, 2011

  Actual Average Record
Temperature  
Mean Temperature 42 °F -  
Max Temperature 46 °F 41 °F 51 °F (1997)
Min Temperature 37 °F 32 °F 26 °F (1996)
Degree Days  
Heating Degree Days 24    
Moisture  
Dew Point 40 °F    
Average Humidity 89    
Maximum Humidity 93    
Minimum Humidity 81    
Precipitation  
Precipitation 0.47 in - - ()
Sea Level Pressure  
Sea Level Pressure 29.90 in    
Wind  
Wind Speed 10 mph (SSW)    
Max Wind Speed 20 mph    
Max Gust Speed 24 mph    
Visibility 8 miles    
Events      
Averages and records for this station are not official NWS values.
T = Trace of Precipitation, MM = Missing Value Source: NWS Daily Summary

Daily Weather History Graph

Daily Weather History Graph

Search for Another Location

Airport:

Trip Planner

Search our weather history database for the weather conditions in past years. The results will help you decide how hot, cold, wet, or windy it might be!

Date:

Astronomy

Dec. 29, 2011 Rise Set
Actual Time 7:58 AM PST 4:27 PM PST
Civil Twilight 7:22 AM PST 5:03 PM PST
Nautical Twilight 6:43 AM PST 5:42 PM PST
Astronomical Twilight 6:06 AM PST 6:20 PM PST
Moon 10:31 AM PST 10:35 PM PST
Length of Visible Light 9h 40m
Length of Day
8h 29m
Waxing Crescent, 27% of the Moon is Illuminated
Dec 29
Waxing Crescent
Dec 31
First Quarter
Jan 8
Full
Jan 16
Last Quarter
Jan 22
New

Hourly Weather History & Observations

Time (PST) Temp. Windchill Dew Point Humidity Pressure Visibility Wind Dir Wind Speed Gust Speed Precip Events Conditions
12:15 AM 44.6 °F 36.6 °F 42.8 °F 93% 29.84 in 10.0 mi SSW 19.6 mph 24.2 mph N/A   Partly Cloudy
12:35 AM 46.4 °F 40.4 °F 42.8 °F 87% 29.85 in 10.0 mi SSW 13.8 mph 20.7 mph N/A   Mostly Cloudy
12:55 AM 44.6 °F 38.1 °F 41.0 °F 87% 29.85 in 10.0 mi South 13.8 mph 20.7 mph N/A   Mostly Cloudy
1:15 AM 44.6 °F 38.1 °F 39.2 °F 81% 29.85 in 10.0 mi South 13.8 mph 21.9 mph N/A   Clear
1:35 AM 44.6 °F 37.8 °F 39.2 °F 81% 29.88 in 10.0 mi South 15.0 mph 20.7 mph N/A   Clear
1:55 AM 44.6 °F 38.4 °F 39.2 °F 81% 29.88 in 10.0 mi SSW 12.7 mph 19.6 mph N/A   Clear
2:15 AM 44.6 °F 37.8 °F 41.0 °F 87% 29.91 in 10.0 mi South 15.0 mph 19.6 mph N/A   Clear
2:35 AM 42.8 °F 35.4 °F 39.2 °F 87% 29.92 in 10.0 mi SSW 15.0 mph - N/A   Clear
2:55 AM 44.6 °F 37.2 °F 39.2 °F 81% 29.94 in 10.0 mi SSW 17.3 mph 24.2 mph N/A   Clear
3:15 AM 44.6 °F 37.8 °F 39.2 °F 81% 29.94 in 10.0 mi SSW 15.0 mph 24.2 mph N/A   Clear
3:35 AM 42.8 °F 36.6 °F 39.2 °F 87% 29.96 in 10.0 mi SSW 11.5 mph 21.9 mph N/A   Clear
4:15 AM 42.8 °F 35.8 °F 39.2 °F 87% 29.99 in 10.0 mi South 13.8 mph - N/A   Clear
4:55 AM 41.0 °F 35.8 °F 37.4 °F 87% 30.01 in 10.0 mi SSW 8.1 mph - N/A   Clear
5:15 AM 41.0 °F 37.1 °F 37.4 °F 87% 30.03 in 10.0 mi SSW 5.8 mph - N/A   Clear
5:35 AM 39.2 °F 35.9 °F 35.6 °F 87% 30.02 in 10.0 mi SSW 4.6 mph - N/A   Clear
5:55 AM 37.4 °F 32.8 °F 35.6 °F 93% 30.04 in 10.0 mi SSW 5.8 mph - N/A   Clear
6:15 AM 39.2 °F 37.0 °F 37.4 °F 93% 30.04 in 10.0 mi SSW 3.5 mph - N/A   Clear
6:35 AM 39.2 °F - 37.4 °F 93% 30.06 in 10.0 mi Calm Calm - N/A   Partly Cloudy
6:55 AM 37.4 °F - 35.6 °F 93% 30.06 in 10.0 mi Calm Calm - N/A   Mostly Cloudy
7:15 AM 39.2 °F 35.0 °F 37.4 °F 93% 30.07 in 10.0 mi South 5.8 mph - N/A   Mostly Cloudy
7:35 AM 39.2 °F 33.0 °F 37.4 °F 93% 30.08 in 10.0 mi South 9.2 mph - N/A   Partly Cloudy
7:55 AM 39.2 °F 34.2 °F 37.4 °F 93% 30.09 in 10.0 mi South 6.9 mph - N/A   Scattered Clouds
8:15 AM 39.2 °F 35.0 °F 37.4 °F 93% 30.09 in 10.0 mi SSW 5.8 mph - N/A   Mostly Cloudy
8:35 AM 41.0 °F 39.0 °F 37.4 °F 87% 30.10 in 10.0 mi SW 3.5 mph - N/A   Mostly Cloudy
9:15 AM 42.8 °F 37.0 °F 39.2 °F 87% 30.11 in 10.0 mi SSW 10.4 mph - N/A   Clear
9:35 AM 42.8 °F 38.0 °F 39.2 °F 87% 30.10 in 10.0 mi SSW 8.1 mph - N/A   Partly Cloudy
9:55 AM 42.8 °F 37.5 °F 39.2 °F 87% 30.10 in 10.0 mi South 9.2 mph - N/A   Scattered Clouds
10:15 AM 44.6 °F 38.4 °F 39.2 °F 81% 30.08 in 10.0 mi South 12.7 mph - N/A   Scattered Clouds
10:35 AM 44.6 °F 38.8 °F 41.0 °F 87% 30.08 in 10.0 mi South 11.5 mph - N/A   Mostly Cloudy
10:55 AM 44.6 °F 38.4 °F 41.0 °F 87% 30.07 in 10.0 mi SSW 12.7 mph - N/A   Mostly Cloudy
11:15 AM 44.6 °F 40.2 °F 41.0 °F 87% 30.07 in 10.0 mi South 8.1 mph - N/A   Mostly Cloudy
11:35 AM 44.6 °F 39.7 °F 41.0 °F 87% 30.07 in 10.0 mi SW 9.2 mph - N/A   Mostly Cloudy
11:55 AM 44.6 °F 41.4 °F 41.0 °F 87% 30.03 in 10.0 mi SSW 5.8 mph - N/A   Mostly Cloudy
12:35 PM 44.6 °F 40.2 °F 41.0 °F 87% 30.02 in 10.0 mi South 8.1 mph - N/A   Partly Cloudy
1:15 PM 44.6 °F 40.2 °F 41.0 °F 87% 29.97 in 10.0 mi South 8.1 mph - N/A   Partly Cloudy
1:55 PM 44.6 °F 40.2 °F 41.0 °F 87% 29.93 in 10.0 mi South 8.1 mph - N/A   Overcast
2:15 PM 44.6 °F 42.2 °F 41.0 °F 87% 29.92 in 10.0 mi South 4.6 mph - N/A   Mostly Cloudy
2:55 PM 42.8 °F - 41.0 °F 93% 29.87 in 9.0 mi Calm Calm - N/A   Mostly Cloudy
3:15 PM 42.8 °F - 41.0 °F 93% 29.86 in 7.0 mi Calm Calm - N/A   Overcast
3:35 PM 42.8 °F - 41.0 °F 93% 29.84 in 7.0 mi Calm Calm - 0.01 in   Overcast
3:55 PM 42.8 °F - 41.0 °F 93% 29.82 in 4.0 mi Calm Calm - 0.03 in   Overcast
4:15 PM 42.8 °F - 41.0 °F 93% 29.82 in 4.0 mi Calm Calm - 0.02 in   Overcast
4:35 PM 42.8 °F - 41.0 °F 93% 29.80 in 5.0 mi Calm Calm - 0.04 in   Overcast
4:55 PM 42.8 °F - 41.0 °F 93% 29.78 in 5.0 mi Calm Calm - 0.07 in   Overcast
5:15 PM 42.8 °F - 41.0 °F 93% 29.77 in 9.0 mi Calm Calm - 0.03 in   Overcast
5:35 PM 42.8 °F - 41.0 °F 93% 29.75 in 6.0 mi Calm Calm - 0.06 in   Overcast
5:55 PM 42.8 °F 41.1 °F 39.2 °F 87% 29.72 in 10.0 mi WSW 3.5 mph - 0.10 in   Overcast
6:35 PM 42.8 °F - 41.0 °F 93% 29.67 in 5.0 mi Calm Calm - 0.02 in   Overcast
6:55 PM 42.8 °F 40.1 °F 39.2 °F 87% 29.68 in 5.0 mi West 4.6 mph - 0.04 in   Overcast
7:35 PM 41.0 °F - 39.2 °F 93% 29.66 in 5.0 mi Calm Calm - 0.07 in   Overcast
7:55 PM 41.0 °F - 39.2 °F 93% 29.64 in 6.0 mi Calm Calm - 0.10 in   Overcast
8:15 PM 41.0 °F - 39.2 °F 93% 29.63 in 8.0 mi Calm Calm - 0.03 in   Overcast
8:35 PM 41.0 °F - 39.2 °F 93% 29.61 in 7.0 mi Calm Calm - 0.06 in   Overcast
8:55 PM 41.0 °F - 39.2 °F 93% 29.60 in 8.0 mi Calm Calm - 0.07 in   Overcast
9:15 PM 41.0 °F 38.0 °F 39.2 °F 93% 29.60 in 4.0 mi SSW 4.6 mph - 0.01 in   Overcast
9:35 PM 41.0 °F 37.1 °F 39.2 °F 93% 29.59 in 3.0 mi SW 5.8 mph - 0.03 in   Overcast
9:55 PM 41.0 °F 37.1 °F 39.2 °F 93% 29.57 in 5.0 mi SSW 5.8 mph - 0.05 in   Overcast
10:15 PM 41.0 °F 37.1 °F 39.2 °F 93% 29.58 in 3.0 mi SSW 5.8 mph - 0.01 in   Overcast
10:35 PM 41.0 °F 37.1 °F 39.2 °F 93% 29.57 in 5.0 mi SW 5.8 mph - 0.05 in   Overcast
11:35 PM 42.8 °F 37.0 °F 41.0 °F 93% 29.60 in 10.0 mi South 10.4 mph - N/A   Mostly Cloudy
11:55 PM 44.6 °F 37.8 °F 42.8 °F 93% 29.60 in 10.0 mi South 15.0 mph 18.4 mph N/A   Scattered Clouds